Regional Weather Roundup
Issued by NWS

Home | Current Version | Previous Version | Graphics & Text | Print | Product List | Glossary On
Versions: 1 2 3 4 5 6 7 8 9 10 11 12 13 14 15 16 17 18 19 20 21 22 23 24 25 26 27 28 29 30 31 32 33 34 35 36 37 38 39 40 41 42 43 44 45 46 47 48 49 50
462
ASUS43 KOAX 220502
RWRNE

WEATHER ROUNDUP FOR NEBRASKA
NATIONAL WEATHER SERVICE OMAHA NE
1200 AM CDT FRI SEP 22 2017

NOTES: SATELLITE DATA IS BEING USED TO AUGMENT CLOUD COVER ABOVE
       12000 FEET.
       "FAIR" INDICATES FEW OR NO CLOUDS BELOW 12,000 FEET WITH NO
       SIGNIFICANT WEATHER AND/OR OBSTRUCTIONS TO VISIBILITY.


NEZ001>004-019>022-054>056-220600-
NEBRASKA PANHANDLE

CITY           SKY/WX    TMP DP  RH WIND       PRES   REMARKS
SCOTTSBLUFF    CLEAR     56  46  69 N8        29.62R
ALLIANCE       CLEAR     54  44  69 SE8       29.62S
CHADRON        CLEAR     62  39  42 NE15      29.68S
GORDON         FAIR      62  42  48 N13       29.65F
KIMBALL        CLEAR     60  32  35 S7        29.67S
SIDNEY         CLEAR     60  32  34 S12       29.65F
$$

NEZ057>060-069>072-079>082-220600-
SOUTHWEST NEBRASKA

CITY           SKY/WX    TMP DP  RH WIND       PRES   REMARKS
NORTH PLATTE   CLEAR     80  42  25 S14       29.64S
IMPERIAL       CLEAR     75  36  24 S15       29.64F
LEXINGTON      CLEAR     78  56  45 S15G22    29.69S
MCCOOK         LGT RAIN  79  55  43 S17G28    29.66S
OGALLALA       CLEAR     72  39  30 S14       29.63F
$$

NEZ005>010-023>029-035>040-094-220600-
NORTH CENTRAL NEBRASKA

CITY           SKY/WX    TMP DP  RH WIND       PRES   REMARKS
VALENTINE      CLEAR     69  55  60 SE7       29.61F
AINSWORTH      CLEAR     73  64  73 SE15G21   29.65R
BROKEN BOW     CLEAR     71  53  52 SE12      29.69R
O`NEILL        CLEAR     79  69  72 SE15      29.69R
ORD            CLEAR     79  66  64 SE16      29.67S
THEDFORD       CLEAR     73  45  36 SE10      29.65F
$$

NEZ041-046>049-061>064-073>077-083>087-220600-
SOUTH CENTRAL NEBRASKA

CITY           SKY/WX    TMP DP  RH WIND       PRES   REMARKS
GRAND ISLAND   CLEAR     81  70  69 S20G29    29.74R
AURORA         CLEAR     82  69  64 S17G24    29.75R
HASTINGS       CLEAR     83  67  58 S16G26    29.75R
HEBRON         MOCLDY    83  72  69 S14G23    29.78S
HOLDREGE       CLEAR     79  59  50 S13G18    29.72R
KEARNEY        CLEAR     81  64  56 S20G28    29.72R
YORK           PTCLDY    82  72  69 S18G25    29.77R
$$

NEZ011>018-030>034-042>045-220600-
NORTHEAST NEBRASKA

CITY           SKY/WX    TMP DP  RH WIND       PRES   REMARKS
NORFOLK        CLEAR     81  72  74 S21G28    29.72S
ALBION         CLEAR     80  72  75 SE15G21   29.72S
BLAIR          PTCLDY    81  73  76 S16G23    29.80S
COLUMBUS       CLEAR     82  72  71 S16G26    29.75R
FREMONT        PTCLDY    81  72  72 SE14G22   29.78S
TEKAMAH        CLEAR     81  72  74 S13       29.77S
WAYNE          CLEAR     81  77  89 S21G29    29.74S
$$

NEZ050>053-065>068-078-088>093-220600-
SOUTHEAST NEBRASKA

CITY           SKY/WX    TMP DP  RH WIND       PRES   REMARKS
LINCOLN        CLEAR     83  71  67 S20G28    29.78R
OMAHA EPPLEY   PTCLDY    82  72  71 S18       29.80R
BEATRICE       CLEAR     82  72  71 S16G22    29.81R
FALLS CITY     CLEAR     81  72  74 S14       29.83S
NEBRASKA CITY  CLEAR     80  75  85 S14       29.83S
PLATTSMOUTH    PTCLDY    81  73  78 S14G22    29.82S
$$

NEZ044-045-051>053-067-220600-
OMAHA AREA

CITY           SKY/WX    TMP DP  RH WIND       PRES   REMARKS
OMAHA EPPLEY   PTCLDY    82  72  71 S18       29.80R
BLAIR          PTCLDY    81  73  76 S16G23    29.80S
FREMONT        PTCLDY    81  72  72 SE14G22   29.78S
MILLARD        PTCLDY    83  74  74 S10       29.79S HX  90
OFFUTT AFB     PTCLDY    81  73  76 SE15      29.80R
PLATTSMOUTH    PTCLDY    81  73  78 S14G22    29.82S
WAHOO          MOCLDY    81  72  74 S13G21    29.79R
$$




USA.gov is the U.S. government's official web portal to all federal, state and local government web resources and services.